Flight Track Log - Related Links

Times and Time Zones

All times are in EDT time to prevent confusion due to time zone crossing. See the EJA396 flight status page for this flight to view local times or setup timezone preferences in your user account.

Time Position Orientation Groundspeed Altitude Reporting Facility
EDT Latitude Longitude Course Direction KTS MPH feet Rate Location/Type
10:05AM 39.6833 -75.6167 252° West 171 197 800  Level Philadelphia TRACON
10:06AM 39.6667 -75.6833 252° West 244 281 2,200 2,667 Climbing Philadelphia TRACON
10:07AM 39.6333 -75.6833 180° South 296 341 5,600 1,850 Climbing Philadelphia TRACON
10:08AM 39.6500 -75.6000 75° East 290 334 5,900 1,513 Climbing Philadelphia TRACON
10:09AM 39.7000 -75.5167 52° Northeast 278 320 8,500 2,048 Climbing Philadelphia TRACON
10:10AM 39.7333 -75.4167 67° East 310 357 10,200 1,750 Climbing Philadelphia TRACON
10:11AM 39.7500 -75.3167 78° East 377 434 12,000 947 Climbing Philadelphia TRACON
10:12AM 39.7500 -75.1667 90° East 393 452 12,000  Level Philadelphia TRACON
10:13AM 39.7667 -75.0333 81° East 391 450 12,000  Level Philadelphia TRACON
10:14AM 39.7831 -74.8364 84° East 415 478 12,000 612 Level New York Center
10:15AM 39.8186 -74.7033 71° East 401 461 13,500 2,118 Climbing New York Center
10:16AM 39.8986 -74.6158 40° Northeast 360 414 16,200 2,430 Climbing New York Center
10:17AM 39.9872 -74.5258 38° Northeast 367 422 18,400 2,000 Climbing New York Center
10:18AM 40.0794 -74.4358 37° Northeast 392 451 20,200 1,636 Climbing New York Center
10:19AM 40.1764 -74.3406 37° Northeast 418 481 21,700 1,240 Climbing New York Center
10:20AM 40.2733 -74.2314 41° Northeast 431 496 22,700 912 Climbing New York Center
10:23AM 40.4161 -73.8464 64° Northeast 478 550 25,000 636 Climbing Boston Center
10:24AM 40.4808 -73.6433 67° East 484 557 25,000  Level Boston Center
10:25AM 40.5347 -73.4806 66° East 489 563 25,000 -91 Level Boston Center
10:26AM 40.5881 -73.3147 67° East 489 563 24,800 -636 Descending Boston Center
10:27AM 40.6519 -73.1211 66° East 489 563 23,600 -1,100 Descending Boston Center
10:28AM 40.7069 -72.9631 65° Northeast 478 550 22,600 -1,050 Descending Boston Center
10:29AM 40.7597 -72.8072 66° East 465 535 21,500 -1,650 Descending Boston Center
10:30AM 40.8100 -72.6594 66° East 454 522 19,300 -2,350 Descending Boston Center
10:31AM 40.8497 -72.5278 68° East 447 514 16,800 -2,350 Descending Boston Center
10:32AM 40.8978 -72.3933 65° Northeast 421 484 14,600 -2,350 Descending Boston Center
10:33AM 40.9728 -72.2889 46° Northeast 393 452 12,100 -1,800 Descending Boston Center
10:34AM 41.0456 -72.1869 47° Northeast 383 441 11,000 -550 Descending Boston Center
10:35AM 41.1119 -72.0819 50° Northeast 378 435 11,000 -950 Level Boston Center
10:36AM 41.1719 -71.9906 49° Northeast 355 409 9,100 -1,900 Descending Boston Center

Login

Don't have an account? Register now (free) for customized features, flight alerts, and more!